Time,TemperatureF,DewpointF,PressureIn,WindDirection,WindDirectionDegrees,WindSpeedMPH,WindSpeedGustMPH,Humidity,HourlyPrecipIn,Conditions,Clouds,dailyrainin,SoftwareType,DateUTC
2013-05-25 00:05:00,43.5,32.9,30.20,WNW,303,1.0,3.0,66,0.00,,,0.00,Wunderground v.1.15,2013-05-25 04:05:00,
2013-05-25 00:10:00,43.4,33.2,30.20,West,270,1.0,2.0,67,0.00,,,0.00,Wunderground v.1.15,2013-05-25 04:10:00,
2013-05-25 00:20:00,43.3,33.4,30.21,South,183,1.0,1.0,68,0.00,,,0.00,Wunderground v.1.15,2013-05-25 04:20:00,
2013-05-25 00:25:00,43.2,33.3,30.21,SW,231,1.0,4.0,68,0.00,,,0.00,Wunderground v.1.15,2013-05-25 04:25:00,
2013-05-25 00:35:00,43.0,32.0,30.21,SSW,197,3.0,3.0,65,0.00,,,0.00,Wunderground v.1.15,2013-05-25 04:35:00,
2013-05-25 00:40:00,43.0,32.4,30.21,NW,316,1.0,1.0,66,0.00,,,0.00,Wunderground v.1.15,2013-05-25 04:40:00,
2013-05-25 00:45:00,43.0,33.5,30.21,East,89,1.0,1.0,69,0.00,,,0.00,Wunderground v.1.15,2013-05-25 04:45:00,
2013-05-25 00:55:00,42.9,33.1,30.21,East,98,1.0,1.0,68,0.00,,,0.00,Wunderground v.1.15,2013-05-25 04:55:00,
2013-05-25 01:00:00,42.8,32.2,30.21,East,81,1.0,3.0,66,0.00,,,0.00,Wunderground v.1.15,2013-05-25 05:00:00,
2013-05-25 01:05:00,42.6,31.7,30.21,NE,43,1.0,3.0,65,0.00,,,0.00,Wunderground v.1.15,2013-05-25 05:05:00,
2013-05-25 01:15:00,42.4,31.5,30.21,NNE,29,2.0,3.0,65,0.00,,,0.00,Wunderground v.1.15,2013-05-25 05:15:00,
2013-05-25 01:25:00,42.3,32.8,30.20,ENE,77,0.0,1.0,69,0.00,,,0.00,Wunderground v.1.15,2013-05-25 05:25:00,
2013-05-25 01:30:00,42.2,32.0,30.20,ESE,105,1.0,1.0,67,0.00,,,0.00,Wunderground v.1.15,2013-05-25 05:30:00,
2013-05-25 01:40:00,42.2,31.6,30.20,NNE,30,1.0,1.0,66,0.00,,,0.00,Wunderground v.1.15,2013-05-25 05:40:00,
2013-05-25 01:50:00,42.1,32.3,30.20,East,95,1.0,1.0,68,0.00,,,0.00,Wunderground v.1.15,2013-05-25 05:50:00,
2013-05-25 01:55:00,42.0,32.2,30.20,West,259,1.0,3.0,68,0.00,,,0.00,Wunderground v.1.15,2013-05-25 05:55:00,
2013-05-25 02:05:00,41.8,31.6,30.20,ENE,73,2.0,3.0,67,0.00,,,0.00,Wunderground v.1.15,2013-05-25 06:05:00,
2013-05-25 02:15:00,41.7,31.5,30.20,North,354,1.0,1.0,67,0.00,,,0.00,Wunderground v.1.15,2013-05-25 06:15:00,
2013-05-25 02:25:00,41.4,30.9,30.20,East,85,1.0,1.0,66,0.00,,,0.00,Wunderground v.1.15,2013-05-25 06:25:00,
2013-05-25 02:35:00,41.2,31.8,30.20,ENE,66,1.0,1.0,69,0.00,,,0.00,Wunderground v.1.15,2013-05-25 06:35:00,
2013-05-25 02:45:00,40.8,31.1,30.20,NNW,341,1.0,3.0,68,0.00,,,0.00,Wunderground v.1.15,2013-05-25 06:45:00,
2013-05-25 02:55:00,40.4,30.7,30.20,South,181,1.0,1.0,68,0.00,,,0.00,Wunderground v.1.15,2013-05-25 06:55:00,
2013-05-25 03:05:00,40.2,30.5,30.20,NNW,332,3.0,4.0,68,0.00,,,0.00,Wunderground v.1.15,2013-05-25 07:05:00,
2013-05-25 03:15:00,40.0,30.6,30.19,West,271,3.0,4.0,69,0.00,,,0.00,Wunderground v.1.15,2013-05-25 07:15:00,
2013-05-25 03:25:00,39.9,30.2,30.20,South,169,4.0,5.0,68,0.00,,,0.00,Wunderground v.1.15,2013-05-25 07:25:00,
2013-05-25 03:35:00,39.9,30.2,30.20,West,268,5.0,11.0,68,0.00,,,0.00,Wunderground v.1.15,2013-05-25 07:35:00,
2013-05-25 03:45:00,40.0,30.3,30.21,SW,228,6.0,6.0,68,0.00,,,0.00,Wunderground v.1.15,2013-05-25 07:45:00,
2013-05-25 03:55:00,40.0,30.6,30.21,WNW,297,4.0,6.0,69,0.00,,,0.00,Wunderground v.1.15,2013-05-25 07:55:00,
2013-05-25 04:05:00,39.8,30.8,30.21,SW,223,4.0,7.0,70,0.00,,,0.00,Wunderground v.1.15,2013-05-25 08:05:00,
2013-05-25 04:15:00,39.7,31.1,30.22,SW,235,4.0,5.0,71,0.00,,,0.00,Wunderground v.1.15,2013-05-25 08:15:00,
2013-05-25 04:25:00,39.7,31.1,30.22,SW,236,3.0,4.0,71,0.00,,,0.00,Wunderground v.1.15,2013-05-25 08:25:00,
2013-05-25 04:35:00,39.5,31.6,30.21,SW,226,2.0,3.0,73,0.00,,,0.00,Wunderground v.1.15,2013-05-25 08:35:00,
2013-05-25 04:45:00,39.4,31.8,30.21,WNW,295,3.0,7.0,74,0.00,,,0.00,Wunderground v.1.15,2013-05-25 08:45:00,
2013-05-25 04:55:00,39.3,31.4,30.21,WSW,239,4.0,6.0,73,0.00,,,0.00,Wunderground v.1.15,2013-05-25 08:55:00,
2013-05-25 05:05:00,39.2,32.3,30.21,SSW,193,2.0,5.0,76,0.00,,,0.00,Wunderground v.1.15,2013-05-25 09:05:00,
2013-05-25 05:15:00,39.0,31.4,30.21,SW,226,3.0,4.0,74,0.00,,,0.00,Wunderground v.1.15,2013-05-25 09:15:00,
2013-05-25 05:25:00,38.8,31.6,30.22,West,262,2.0,11.0,75,0.00,,,0.00,Wunderground v.1.15,2013-05-25 09:25:00,
2013-05-25 05:30:00,38.8,31.6,30.21,South,191,3.0,4.0,75,0.00,,,0.00,Wunderground v.1.15,2013-05-25 09:30:00,
2013-05-25 05:40:00,38.8,31.6,30.22,SW,232,4.0,4.0,75,0.00,,,0.00,Wunderground v.1.15,2013-05-25 09:40:00,
2013-05-25 05:50:00,38.6,31.4,30.22,West,268,3.0,3.0,75,0.00,,,0.00,Wunderground v.1.15,2013-05-25 09:50:00,
2013-05-25 06:00:00,38.5,31.9,30.22,West,271,4.0,5.0,77,0.00,,,0.00,Wunderground v.1.15,2013-05-25 10:00:00,
2013-05-25 06:05:00,38.6,32.0,30.22,SW,214,4.0,5.0,77,0.00,,,0.00,Wunderground v.1.15,2013-05-25 10:05:00,
2013-05-25 06:15:00,38.6,32.3,30.22,SW,218,3.0,5.0,78,0.00,,,0.00,Wunderground v.1.15,2013-05-25 10:15:00,
2013-05-25 06:20:00,38.8,32.5,30.22,South,170,3.0,3.0,78,0.00,,,0.00,Wunderground v.1.15,2013-05-25 10:20:00,
2013-05-25 06:30:00,38.9,32.9,30.23,SSE,153,2.0,4.0,79,0.00,,,0.00,Wunderground v.1.15,2013-05-25 10:30:00,
2013-05-25 06:40:00,39.1,32.2,30.23,ENE,64,2.0,2.0,76,0.00,,,0.00,Wunderground v.1.15,2013-05-25 10:40:00,
2013-05-25 06:50:00,39.1,32.2,30.24,SW,233,1.0,5.0,76,0.00,,,0.00,Wunderground v.1.15,2013-05-25 10:50:00,
2013-05-25 07:00:00,39.1,31.8,30.24,NNW,345,3.0,3.0,75,0.00,,,0.00,Wunderground v.1.15,2013-05-25 11:00:00,
2013-05-25 07:05:00,39.2,32.9,30.23,NNW,339,2.0,3.0,78,0.00,,,0.00,Wunderground v.1.15,2013-05-25 11:05:00,
2013-05-25 07:15:00,39.3,32.0,30.24,NW,307,3.0,7.0,75,0.00,,,0.00,Wunderground v.1.15,2013-05-25 11:15:00,
2013-05-25 07:20:00,39.5,31.9,30.24,West,271,4.0,4.0,74,0.00,,,0.00,Wunderground v.1.15,2013-05-25 11:20:00,
2013-05-25 07:30:00,39.9,32.3,30.24,NE,43,3.0,3.0,74,0.00,,,0.00,Wunderground v.1.15,2013-05-25 11:30:00,
2013-05-25 07:40:00,40.3,33.0,30.24,South,189,3.0,3.0,75,0.00,,,0.00,Wunderground v.1.15,2013-05-25 11:40:00,
2013-05-25 07:50:00,40.5,33.2,30.24,NNE,30,2.0,2.0,75,0.00,,,0.00,Wunderground v.1.15,2013-05-25 11:50:00,
2013-05-25 08:00:00,40.6,32.6,30.24,NW,308,2.0,3.0,73,0.00,,,0.00,Wunderground v.1.15,2013-05-25 12:00:00,
2013-05-25 08:05:00,40.7,33.1,30.24,WSW,243,3.0,3.0,74,0.00,,,0.00,Wunderground v.1.15,2013-05-25 12:05:00,
2013-05-25 08:15:00,41.1,33.4,30.24,WSW,241,2.0,3.0,74,0.00,,,0.00,Wunderground v.1.15,2013-05-25 12:15:00,
2013-05-25 08:25:00,41.3,33.0,30.24,WSW,242,2.0,4.0,72,0.00,,,0.00,Wunderground v.1.15,2013-05-25 12:25:00,
2013-05-25 08:30:00,41.4,33.0,30.23,WNW,286,4.0,4.0,72,0.00,,,0.00,Wunderground v.1.15,2013-05-25 12:30:00,
2013-05-25 08:40:00,42.1,33.4,30.24,NNW,335,4.0,9.0,71,0.00,,,0.00,Wunderground v.1.15,2013-05-25 12:40:00,
2013-05-25 08:50:00,42.9,33.8,30.23,SW,233,6.0,7.0,70,0.00,,,0.00,Wunderground v.1.15,2013-05-25 12:50:00,
2013-05-25 09:00:00,43.6,34.1,30.23,WSW,246,6.0,6.0,69,0.00,,,0.00,Wunderground v.1.15,2013-05-25 13:00:00,
2013-05-25 09:05:00,44.1,35.6,30.22,SSW,212,4.0,6.0,72,0.00,,,0.00,Wunderground v.1.15,2013-05-25 13:05:00,
2013-05-25 09:15:00,45.3,35.7,30.22,WSW,237,3.0,3.0,69,0.00,,,0.00,Wunderground v.1.15,2013-05-25 13:15:00,
2013-05-25 09:25:00,46.5,36.1,30.22,SSW,209,2.0,3.0,67,0.00,,,0.00,Wunderground v.1.15,2013-05-25 13:25:00,
2013-05-25 09:35:00,46.9,37.3,30.21,SW,233,4.0,6.0,69,0.00,,,0.00,Wunderground v.1.15,2013-05-25 13:35:00,
2013-05-25 09:45:00,47.9,37.5,30.21,NNE,27,3.0,4.0,67,0.00,,,0.00,Wunderground v.1.15,2013-05-25 13:45:00,
2013-05-25 09:50:00,48.5,37.7,30.21,SW,218,3.0,6.0,66,0.00,,,0.00,Wunderground v.1.15,2013-05-25 13:50:00,
2013-05-25 10:00:00,48.8,39.1,30.21,South,189,4.0,4.0,69,0.00,,,0.00,Wunderground v.1.15,2013-05-25 14:00:00,
2013-05-25 10:05:00,49.3,37.6,30.21,NNE,31,3.0,8.0,64,0.00,,,0.00,Wunderground v.1.15,2013-05-25 14:05:00,
2013-05-25 10:15:00,48.9,36.0,30.22,WSW,256,4.0,6.0,61,0.00,,,0.00,Wunderground v.1.15,2013-05-25 14:15:00,
2013-05-25 10:20:00,48.8,36.4,30.21,SW,235,4.0,7.0,62,0.00,,,0.00,Wunderground v.1.15,2013-05-25 14:20:00,
2013-05-25 10:30:00,48.9,37.3,30.21,SSW,204,6.0,9.0,64,0.00,,,0.00,Wunderground v.1.15,2013-05-25 14:30:00,
2013-05-25 10:40:00,48.9,36.4,30.22,NW,305,6.0,6.0,62,0.00,,,0.00,Wunderground v.1.15,2013-05-25 14:40:00,
2013-05-25 10:50:00,49.8,35.6,30.22,West,266,7.0,7.0,58,0.00,,,0.00,Wunderground v.1.15,2013-05-25 14:50:00,
2013-05-25 11:00:00,49.9,36.1,30.23,WNW,293,7.0,8.0,59,0.00,,,0.00,Wunderground v.1.15,2013-05-25 15:00:00,
2013-05-25 11:05:00,50.5,36.3,30.23,South,189,7.0,8.0,58,0.00,,,0.00,Wunderground v.1.15,2013-05-25 15:05:00,
2013-05-25 11:15:00,51.3,36.6,30.23,ESE,121,5.0,5.0,57,0.00,,,0.00,Wunderground v.1.15,2013-05-25 15:15:00,
2013-05-25 11:25:00,52.8,36.1,30.24,WNW,303,4.0,15.0,53,0.00,,,0.00,Wunderground v.1.15,2013-05-25 15:25:00,
2013-05-25 11:30:00,53.2,37.0,30.24,SW,214,5.0,5.0,54,0.00,,,0.00,Wunderground v.1.15,2013-05-25 15:30:00,
2013-05-25 11:40:00,54.4,38.6,30.23,WNW,291,4.0,4.0,55,0.00,,,0.00,Wunderground v.1.15,2013-05-25 15:40:00,
2013-05-25 11:50:00,55.6,38.7,30.23,East,98,4.0,4.0,53,0.00,,,0.00,Wunderground v.1.15,2013-05-25 15:50:00,
2013-05-25 12:00:00,56.1,35.6,30.22,SSW,210,6.0,6.0,46,0.00,,,0.00,Wunderground v.1.15,2013-05-25 16:00:00,
2013-05-25 12:05:00,56.5,39.6,30.22,WSW,239,5.0,6.0,53,0.00,,,0.00,Wunderground v.1.15,2013-05-25 16:05:00,
2013-05-25 12:15:00,57.4,37.3,30.21,WSW,247,4.0,4.0,47,0.00,,,0.00,Wunderground v.1.15,2013-05-25 16:15:00,
2013-05-25 12:20:00,57.9,37.8,30.21,South,178,4.0,6.0,47,0.00,,,0.00,Wunderground v.1.15,2013-05-25 16:20:00,
2013-05-25 12:30:00,58.3,37.0,30.20,WSW,241,4.0,4.0,45,0.00,,,0.00,Wunderground v.1.15,2013-05-25 16:30:00,
2013-05-25 12:40:00,58.1,35.7,30.21,SE,142,4.0,4.0,43,0.00,,,0.00,Wunderground v.1.15,2013-05-25 16:40:00,
2013-05-25 12:45:00,58.5,37.8,30.20,SW,222,4.0,5.0,46,0.00,,,0.00,Wunderground v.1.15,2013-05-25 16:45:00,
2013-05-25 12:50:00,59.1,37.8,30.21,SE,126,4.0,4.0,45,0.00,,,0.00,Wunderground v.1.15,2013-05-25 16:50:00,
2013-05-25 13:00:00,60.0,38.6,30.20,SW,232,5.0,5.0,45,0.00,,,0.00,Wunderground v.1.15,2013-05-25 17:00:00,
2013-05-25 13:05:00,59.7,37.2,30.21,NW,323,4.0,5.0,43,0.00,,,0.00,Wunderground v.1.15,2013-05-25 17:05:00,
2013-05-25 13:15:00,59.3,36.2,30.20,NW,326,4.0,5.0,42,0.00,,,0.00,Wunderground v.1.15,2013-05-25 17:15:00,
2013-05-25 13:20:00,59.4,37.5,30.19,WSW,247,4.0,9.0,44,0.00,,,0.00,Wunderground v.1.15,2013-05-25 17:20:00,
2013-05-25 13:30:00,60.3,38.9,30.20,SW,226,5.0,8.0,45,0.00,,,0.00,Wunderground v.1.15,2013-05-25 17:30:00,
2013-05-25 13:40:00,59.2,36.7,30.19,South,187,6.0,10.0,43,0.00,,,0.00,Wunderground v.1.15,2013-05-25 17:40:00,
2013-05-25 13:45:00,58.5,37.2,30.19,NNW,339,8.0,10.0,45,0.00,,,0.00,Wunderground v.1.15,2013-05-25 17:45:00,
2013-05-25 13:55:00,59.7,37.7,30.19,SSE,156,4.0,6.0,44,0.00,,,0.00,Wunderground v.1.15,2013-05-25 17:55:00,
2013-05-25 14:05:00,60.2,37.6,30.18,NW,313,5.0,5.0,43,0.00,,,0.00,Wunderground v.1.15,2013-05-25 18:05:00,
2013-05-25 14:15:00,59.8,37.8,30.19,SW,221,7.0,7.0,44,0.00,,,0.00,Wunderground v.1.15,2013-05-25 18:15:00,
2013-05-25 14:25:00,60.7,37.5,30.18,SW,233,5.0,6.0,42,0.00,,,0.00,Wunderground v.1.15,2013-05-25 18:25:00,
2013-05-25 14:35:00,60.7,37.5,30.18,WSW,245,7.0,7.0,42,0.00,,,0.00,Wunderground v.1.15,2013-05-25 18:35:00,
2013-05-25 14:45:00,60.7,36.8,30.18,WSW,237,7.0,8.0,41,0.00,,,0.00,Wunderground v.1.15,2013-05-25 18:45:00,
2013-05-25 14:55:00,61.6,37.7,30.17,SE,139,7.0,11.0,41,0.00,,,0.00,Wunderground v.1.15,2013-05-25 18:55:00,
2013-05-25 15:05:00,62.8,38.1,30.19,ENE,69,5.0,7.0,40,0.00,,,0.00,Wunderground v.1.15,2013-05-25 19:05:00,
2013-05-25 15:15:00,63.1,39.6,30.17,SW,220,4.0,8.0,42,0.00,,,0.00,Wunderground v.1.15,2013-05-25 19:15:00,
2013-05-25 15:25:00,62.4,38.4,30.18,SSW,209,5.0,8.0,41,0.00,,,0.00,Wunderground v.1.15,2013-05-25 19:25:00,
2013-05-25 15:35:00,62.1,38.1,30.18,NNE,25,4.0,5.0,41,0.00,,,0.00,Wunderground v.1.15,2013-05-25 19:35:00,
2013-05-25 15:45:00,61.7,37.1,30.17,South,183,6.0,11.0,40,0.00,,,0.00,Wunderground v.1.15,2013-05-25 19:45:00,
2013-05-25 15:55:00,60.7,37.5,30.17,SW,229,4.0,7.0,42,0.00,,,0.00,Wunderground v.1.15,2013-05-25 19:55:00,
2013-05-25 16:05:00,61.2,36.0,30.17,SSW,208,5.0,10.0,39,0.00,,,0.00,Wunderground v.1.15,2013-05-25 20:05:00,
2013-05-25 16:15:00,59.6,35.9,30.17,WSW,245,6.0,8.0,41,0.00,,,0.00,Wunderground v.1.15,2013-05-25 20:15:00,
2013-05-25 16:25:00,59.3,36.2,30.17,SW,216,5.0,7.0,42,0.00,,,0.00,Wunderground v.1.15,2013-05-25 20:25:00,
2013-05-25 16:30:00,59.1,36.6,30.17,SSW,195,5.0,5.0,43,0.00,,,0.00,Wunderground v.1.15,2013-05-25 20:30:00,
2013-05-25 16:40:00,59.5,37.6,30.16,WSW,253,4.0,6.0,44,0.00,,,0.00,Wunderground v.1.15,2013-05-25 20:40:00,
2013-05-25 16:45:00,59.8,36.0,30.16,South,188,4.0,6.0,41,0.00,,,0.00,Wunderground v.1.15,2013-05-25 20:45:00,
2013-05-25 16:55:00,61.3,37.4,30.16,SSW,197,4.0,6.0,41,0.00,,,0.00,Wunderground v.1.15,2013-05-25 20:55:00,
2013-05-25 17:05:00,60.6,38.0,30.16,North,4,3.0,6.0,43,0.00,,,0.00,Wunderground v.1.15,2013-05-25 21:05:00,
2013-05-25 17:15:00,59.8,36.6,30.16,South,191,4.0,4.0,42,0.00,,,0.00,Wunderground v.1.15,2013-05-25 21:15:00,
2013-05-25 17:25:00,60.0,37.4,30.16,West,280,4.0,7.0,43,0.00,,,0.00,Wunderground v.1.15,2013-05-25 21:25:00,
2013-05-25 17:35:00,59.6,37.6,30.16,West,273,5.0,7.0,44,0.00,,,0.00,Wunderground v.1.15,2013-05-25 21:35:00,
2013-05-25 17:40:00,59.4,38.6,30.16,North,359,5.0,5.0,46,0.00,,,0.00,Wunderground v.1.15,2013-05-25 21:40:00,
2013-05-25 17:50:00,59.6,35.9,30.15,SE,129,3.0,3.0,41,0.00,,,0.00,Wunderground v.1.15,2013-05-25 21:50:00,
2013-05-25 18:00:00,59.9,36.1,30.15,West,268,3.0,4.0,41,0.00,,,0.00,Wunderground v.1.15,2013-05-25 22:00:00,
2013-05-25 18:05:00,60.0,35.6,30.15,ENE,60,4.0,5.0,40,0.00,,,0.00,Wunderground v.1.15,2013-05-25 22:05:00,
2013-05-25 18:15:00,60.3,36.5,30.14,WSW,258,4.0,5.0,41,0.00,,,0.00,Wunderground v.1.15,2013-05-25 22:15:00,
2013-05-25 18:25:00,59.4,35.7,30.15,NW,309,5.0,9.0,41,0.00,,,0.00,Wunderground v.1.15,2013-05-25 22:25:00,
2013-05-25 18:30:00,59.6,35.9,30.15,SSW,197,5.0,5.0,41,0.00,,,0.00,Wunderground v.1.15,2013-05-25 22:30:00,
2013-05-25 18:40:00,59.2,36.7,30.15,SW,218,4.0,10.0,43,0.00,,,0.00,Wunderground v.1.15,2013-05-25 22:40:00,
2013-05-25 18:50:00,59.2,36.1,30.15,SSW,206,5.0,5.0,42,0.00,,,0.00,Wunderground v.1.15,2013-05-25 22:50:00,
2013-05-25 19:00:00,59.0,35.9,30.15,WSW,238,3.0,5.0,42,0.00,,,0.00,Wunderground v.1.15,2013-05-25 23:00:00,
2013-05-25 19:05:00,58.9,35.8,30.15,SW,219,4.0,10.0,42,0.00,,,0.00,Wunderground v.1.15,2013-05-25 23:05:00,
2013-05-25 19:15:00,58.6,36.2,30.15,NNW,335,4.0,5.0,43,0.00,,,0.00,Wunderground v.1.15,2013-05-25 23:15:00,
2013-05-25 19:20:00,58.5,37.2,30.15,SW,222,3.0,9.0,45,0.00,,,0.00,Wunderground v.1.15,2013-05-25 23:20:00,
2013-05-25 19:30:00,58.2,35.8,30.15,NNW,328,4.0,8.0,43,0.00,,,0.00,Wunderground v.1.15,2013-05-25 23:30:00,
2013-05-25 19:40:00,57.9,36.1,30.15,East,87,4.0,4.0,44,0.00,,,0.00,Wunderground v.1.15,2013-05-25 23:40:00,
2013-05-25 19:45:00,57.8,35.4,30.15,West,281,3.0,4.0,43,0.00,,,0.00,Wunderground v.1.15,2013-05-25 23:45:00,
2013-05-25 19:55:00,57.5,36.3,30.15,WSW,257,2.0,3.0,45,0.00,,,0.00,Wunderground v.1.15,2013-05-25 23:55:00,
2013-05-25 20:05:00,57.1,35.9,30.15,South,185,2.0,2.0,45,0.00,,,0.00,Wunderground v.1.15,2013-05-26 00:05:00,
2013-05-25 20:15:00,56.8,36.2,30.15,WNW,283,3.0,3.0,46,0.00,,,0.00,Wunderground v.1.15,2013-05-26 00:15:00,
2013-05-25 20:25:00,56.4,35.9,30.15,WNW,298,2.0,6.0,46,0.00,,,0.00,Wunderground v.1.15,2013-05-26 00:25:00,
2013-05-25 20:35:00,56.2,35.7,30.15,WSW,245,2.0,6.0,46,0.00,,,0.00,Wunderground v.1.15,2013-05-26 00:35:00,
2013-05-25 20:40:00,56.0,35.5,30.14,WSW,253,2.0,2.0,46,0.00,,,0.00,Wunderground v.1.15,2013-05-26 00:40:00,
2013-05-25 20:50:00,55.7,36.3,30.14,WNW,285,2.0,2.0,48,0.00,,,0.00,Wunderground v.1.15,2013-05-26 00:50:00,
2013-05-25 21:00:00,55.2,36.4,30.14,ENE,78,1.0,2.0,49,0.00,,,0.00,Wunderground v.1.15,2013-05-26 01:00:00,
2013-05-25 21:05:00,55.0,36.2,30.15,SSE,159,1.0,2.0,49,0.00,,,0.00,Wunderground v.1.15,2013-05-26 01:05:00,
2013-05-25 21:15:00,54.4,37.1,30.15,East,87,1.0,1.0,52,0.00,,,0.00,Wunderground v.1.15,2013-05-26 01:15:00,
2013-05-25 21:25:00,54.1,37.3,30.15,NNW,333,1.0,1.0,53,0.00,,,0.00,Wunderground v.1.15,2013-05-26 01:25:00,
2013-05-25 21:35:00,53.5,36.8,30.16,ENE,67,1.0,1.0,53,0.00,,,0.00,Wunderground v.1.15,2013-05-26 01:35:00,
2013-05-25 21:45:00,52.6,35.5,30.16,SE,133,1.0,1.0,52,0.00,,,0.00,Wunderground v.1.15,2013-05-26 01:45:00,
2013-05-25 21:50:00,52.5,35.4,30.17,East,100,1.0,1.0,52,0.00,,,0.00,Wunderground v.1.15,2013-05-26 01:50:00,
2013-05-25 22:00:00,53.0,35.3,30.17,NNW,347,1.0,2.0,51,0.00,,,0.00,Wunderground v.1.15,2013-05-26 02:00:00,
2013-05-25 22:05:00,53.1,35.4,30.17,West,266,0.0,3.0,51,0.00,,,0.00,Wunderground v.1.15,2013-05-26 02:05:00,
2013-05-25 22:15:00,53.0,34.8,30.17,NNW,343,1.0,3.0,50,0.00,,,0.00,Wunderground v.1.15,2013-05-26 02:15:00,
2013-05-25 22:25:00,52.5,34.9,30.17,ESE,105,1.0,3.0,51,0.00,,,0.00,Wunderground v.1.15,2013-05-26 02:25:00,
2013-05-25 22:30:00,52.3,34.7,30.17,ENE,70,1.0,1.0,51,0.00,,,0.00,Wunderground v.1.15,2013-05-26 02:30:00,
2013-05-25 22:40:00,52.4,34.3,30.17,North,354,2.0,2.0,50,0.00,,,0.00,Wunderground v.1.15,2013-05-26 02:40:00,
2013-05-25 22:50:00,52.4,34.3,30.17,North,4,1.0,2.0,50,0.00,,,0.00,Wunderground v.1.15,2013-05-26 02:50:00,
2013-05-25 23:00:00,52.5,34.4,30.17,East,100,1.0,1.0,50,0.00,,,0.00,Wunderground v.1.15,2013-05-26 03:00:00,
2013-05-25 23:05:00,52.2,35.1,30.17,East,84,1.0,1.0,52,0.00,,,0.00,Wunderground v.1.15,2013-05-26 03:05:00,
2013-05-25 23:15:00,51.7,35.6,30.18,NE,54,1.0,3.0,54,0.00,,,0.00,Wunderground v.1.15,2013-05-26 03:15:00,
2013-05-25 23:20:00,51.5,34.9,30.18,North,359,1.0,1.0,53,0.00,,,0.00,Wunderground v.1.15,2013-05-26 03:20:00,
2013-05-25 23:30:00,51.2,34.6,30.18,ENE,68,2.0,3.0,53,0.00,,,0.00,Wunderground v.1.15,2013-05-26 03:30:00,
2013-05-25 23:40:00,50.9,34.8,30.17,ENE,58,2.0,2.0,54,0.00,,,0.00,Wunderground v.1.15,2013-05-26 03:40:00,
2013-05-25 23:50:00,50.9,34.4,30.17,NNE,25,2.0,2.0,53,0.00,,,0.00,Wunderground v.1.15,2013-05-26 03:50:00,